TimeEST,TemperatureF,Dew PointF,Humidity,Sea Level PressureIn,VisibilityMPH,Wind Direction,Wind SpeedMPH,Gust SpeedMPH,PrecipitationIn,Events,Conditions,WindDirDegrees,DateUTC
12:15 AM,37.4,35.6,93,29.82,10.0,West,6.9,-,N/A,,Overcast,280,2012-12-07 05:15:00
12:35 AM,37.4,33.8,87,29.81,10.0,West,5.8,-,N/A,,Overcast,280,2012-12-07 05:35:00
12:55 AM,37.4,33.8,87,29.82,10.0,West,6.9,-,N/A,,Overcast,280,2012-12-07 05:55:00
1:14 AM,37.4,33.8,87,29.83,10.0,WNW,5.8,-,N/A,,Overcast,290,2012-12-07 06:14:00
1:35 AM,37.4,32.0,81,29.82,10.0,WNW,5.8,-,N/A,,Mostly Cloudy,290,2012-12-07 06:35:00
1:54 AM,35.6,32.0,87,29.84,10.0,West,4.6,-,N/A,,Mostly Cloudy,280,2012-12-07 06:54:00
2:15 AM,37.4,33.8,87,29.84,10.0,WNW,4.6,-,N/A,,Overcast,300,2012-12-07 07:15:00
2:35 AM,37.4,33.8,87,29.84,10.0,West,4.6,-,N/A,,Overcast,280,2012-12-07 07:35:00
2:54 AM,35.6,32.0,87,29.85,10.0,West,3.5,-,N/A,,Overcast,270,2012-12-07 07:54:00
3:15 AM,35.6,30.2,81,29.86,10.0,NW,3.5,-,N/A,,Overcast,320,2012-12-07 08:15:00
3:34 AM,35.6,30.2,81,29.87,10.0,WNW,4.6,-,N/A,,Overcast,300,2012-12-07 08:34:00
3:54 AM,35.6,30.2,81,29.87,10.0,WNW,4.6,-,N/A,,Overcast,300,2012-12-07 08:54:00
4:15 AM,35.6,30.2,81,29.87,10.0,WNW,3.5,-,N/A,,Overcast,300,2012-12-07 09:15:00
4:34 AM,33.8,28.4,81,29.87,10.0,NW,4.6,-,N/A,,Overcast,320,2012-12-07 09:34:00
4:55 AM,33.8,28.4,81,29.88,10.0,WNW,3.5,-,N/A,,Overcast,300,2012-12-07 09:55:00
5:14 AM,33.8,30.2,87,29.88,10.0,NNW,4.6,-,N/A,,Overcast,330,2012-12-07 10:14:00
5:35 AM,33.8,28.4,81,29.90,10.0,NNW,3.5,-,N/A,,Overcast,330,2012-12-07 10:35:00
5:55 AM,33.8,26.6,75,29.90,10.0,NW,5.8,-,N/A,,Overcast,320,2012-12-07 10:55:00
6:14 AM,33.8,26.6,75,29.91,10.0,NNW,4.6,-,N/A,,Overcast,340,2012-12-07 11:14:00
6:35 AM,33.8,26.6,75,29.92,10.0,NNW,4.6,-,N/A,,Overcast,330,2012-12-07 11:35:00
6:55 AM,33.8,26.6,75,29.92,10.0,NNW,3.5,-,N/A,,Overcast,330,2012-12-07 11:55:00
7:14 AM,33.8,26.6,75,29.92,10.0,NNW,4.6,-,N/A,,Overcast,340,2012-12-07 12:14:00
7:35 AM,33.8,26.6,75,29.93,10.0,WNW,4.6,-,N/A,,Overcast,290,2012-12-07 12:35:00
7:54 AM,33.8,28.4,81,29.93,10.0,WNW,4.6,-,N/A,,Overcast,290,2012-12-07 12:54:00
8:15 AM,33.8,26.6,75,29.94,10.0,NW,3.5,-,N/A,,Overcast,310,2012-12-07 13:15:00
8:35 AM,33.8,26.6,75,29.95,10.0,Calm,Calm,-,N/A,,Overcast,0,2012-12-07 13:35:00
8:54 AM,33.8,26.6,75,29.95,10.0,Calm,Calm,-,N/A,,Overcast,0,2012-12-07 13:54:00
9:15 AM,33.8,28.4,81,29.95,10.0,Calm,Calm,-,N/A,,Overcast,0,2012-12-07 14:15:00
9:35 AM,33.8,28.4,81,29.96,10.0,Calm,Calm,-,N/A,,Overcast,0,2012-12-07 14:35:00
9:54 AM,33.8,26.6,75,29.96,10.0,Calm,Calm,-,N/A,,Overcast,0,2012-12-07 14:54:00
10:15 AM,33.8,26.6,75,29.97,10.0,West,4.6,-,N/A,,Overcast,270,2012-12-07 15:15:00
10:34 AM,33.8,26.6,75,29.98,10.0,West,5.8,-,N/A,,Overcast,280,2012-12-07 15:34:00
10:55 AM,33.8,26.6,75,29.99,10.0,West,4.6,-,N/A,,Overcast,280,2012-12-07 15:55:00
11:14 AM,33.8,26.6,75,29.98,10.0,West,4.6,-,N/A,,Overcast,270,2012-12-07 16:14:00
11:35 AM,33.8,26.6,75,29.98,10.0,West,4.6,-,N/A,,Overcast,280,2012-12-07 16:35:00
11:55 AM,33.8,26.6,75,29.98,10.0,NW,6.9,-,N/A,,Overcast,310,2012-12-07 16:55:00
12:14 PM,33.8,26.6,75,29.98,10.0,NW,6.9,-,N/A,,Overcast,310,2012-12-07 17:14:00
12:35 PM,35.6,26.6,70,29.97,10.0,NNW,4.6,-,N/A,,Overcast,330,2012-12-07 17:35:00
12:54 PM,35.6,26.6,70,29.97,10.0,NNW,6.9,-,N/A,,Overcast,340,2012-12-07 17:54:00
1:15 PM,35.6,26.6,70,29.97,10.0,NW,6.9,-,N/A,,Overcast,320,2012-12-07 18:15:00
1:34 PM,35.6,26.6,70,29.97,10.0,NW,6.9,-,N/A,,Overcast,320,2012-12-07 18:34:00
1:55 PM,35.6,26.6,70,29.97,10.0,NNW,5.8,-,N/A,,Overcast,330,2012-12-07 18:55:00
2:15 PM,35.6,26.6,70,29.97,10.0,NNW,4.6,-,N/A,,Overcast,340,2012-12-07 19:15:00
2:34 PM,33.8,24.8,70,29.97,10.0,NW,5.8,-,N/A,,Overcast,320,2012-12-07 19:34:00
2:55 PM,33.8,24.8,70,29.97,10.0,NW,5.8,-,N/A,,Overcast,310,2012-12-07 19:55:00
3:15 PM,33.8,26.6,75,29.97,10.0,NNW,6.9,-,N/A,,Overcast,340,2012-12-07 20:15:00
3:34 PM,33.8,24.8,70,29.98,10.0,NW,9.2,-,N/A,,Overcast,310,2012-12-07 20:34:00
3:55 PM,33.8,24.8,70,29.99,10.0,NW,4.6,-,N/A,,Overcast,310,2012-12-07 20:55:00
4:14 PM,33.8,24.8,70,29.99,10.0,NW,4.6,-,N/A,,Overcast,310,2012-12-07 21:14:00
4:35 PM,33.8,24.8,70,29.99,10.0,Calm,Calm,-,N/A,,Overcast,0,2012-12-07 21:35:00
4:55 PM,33.8,24.8,70,29.99,10.0,NW,3.5,-,N/A,,Overcast,310,2012-12-07 21:55:00
5:14 PM,32.0,24.8,75,29.99,10.0,NNW,4.6,-,N/A,,Overcast,340,2012-12-07 22:14:00
5:35 PM,32.0,24.8,75,29.98,10.0,North,4.6,-,N/A,,Overcast,360,2012-12-07 22:35:00
5:55 PM,32.0,24.8,75,29.99,10.0,North,5.8,-,N/A,,Overcast,360,2012-12-07 22:55:00
6:14 PM,32.0,24.8,75,29.99,10.0,North,4.6,-,N/A,,Overcast,350,2012-12-07 23:14:00
6:35 PM,32.0,24.8,75,29.99,10.0,North,3.5,-,N/A,,Mostly Cloudy,360,2012-12-07 23:35:00
6:54 PM,30.2,24.8,80,29.99,10.0,Calm,Calm,-,N/A,,Overcast,0,2012-12-07 23:54:00
7:15 PM,30.2,24.8,80,30.00,10.0,Calm,Calm,-,N/A,,Overcast,0,2012-12-08 00:15:00
7:35 PM,30.2,24.8,80,30.00,10.0,Calm,Calm,-,N/A,,Overcast,0,2012-12-08 00:35:00
8:15 PM,30.2,26.6,86,30.01,10.0,Calm,Calm,-,N/A,,Overcast,0,2012-12-08 01:15:00
8:34 PM,30.2,26.6,86,30.01,10.0,NW,3.5,-,N/A,,Overcast,310,2012-12-08 01:34:00
8:55 PM,30.2,26.6,86,30.02,10.0,Calm,Calm,-,N/A,,Overcast,0,2012-12-08 01:55:00
9:15 PM,30.2,26.6,86,30.01,10.0,Calm,Calm,-,N/A,,Overcast,0,2012-12-08 02:15:00
9:34 PM,30.2,24.8,80,30.01,10.0,Calm,Calm,-,N/A,,Overcast,0,2012-12-08 02:34:00
9:55 PM,30.2,26.6,86,30.01,10.0,Calm,Calm,-,N/A,,Overcast,0,2012-12-08 02:55:00
10:14 PM,30.2,24.8,80,30.02,10.0,Calm,Calm,-,N/A,,Overcast,0,2012-12-08 03:14:00
10:35 PM,30.2,24.8,80,30.01,10.0,Calm,Calm,-,N/A,,Overcast,0,2012-12-08 03:35:00
10:54 PM,30.2,24.8,80,30.00,10.0,NW,3.5,-,N/A,,Overcast,310,2012-12-08 03:54:00
11:15 PM,30.2,24.8,80,30.00,10.0,WNW,3.5,-,N/A,,Overcast,300,2012-12-08 04:15:00
11:35 PM,30.2,24.8,80,30.00,10.0,WNW,3.5,-,N/A,,Overcast,300,2012-12-08 04:35:00
11:54 PM,30.2,24.8,80,30.01,10.0,WNW,3.5,-,N/A,,Overcast,300,2012-12-08 04:54:00